Modesto City Co-Harry Sham Field Modesto US
ICAO: KMOD
IATA: MOD
Category: Medium
Scheduled Services: Yes

Elevation: 97 ft
TransAlt. 18000 ft.

Airport Communications:
NORCAL APP/DEP:36.32
NORCAL APP/DEP:120.95
ASOS:127.7
ATIS:127.7
CTAF:125.3
GND:121.7
RANCHO RDO:114.6
TWR:125.3
UNICOM:122.95

KMOD Zoom In..

Runways:

(A) RW 10L length 5904 ft width 150 ft
---- / hdg 108

(B) RW 10R length 3464 ft width 100 ft
---- / hdg 108

(C) RW 28L length 3464 ft width 100 ft
---- / hdg 288

(D) RW 28R length 5904 ft width 150 ft
ILS 111.90 / hdg 288

Location; KMOD
Day. 23 / Time. 21.53 Zulu
* Altimeter: 29.88
* Temperature: 24° c. 75.2°f.
* Wind from: 280° Speed 09 kn.
Dewpoint: 10° c.
Visibility: 10 Statute Miles.
Clouds: Clear (automated report).

KMOD 232153Z 28009KT 10SM CLR 24/10 A2988 RMK AO2 SLP119 T02440100


Wind From 280°
Speed 09 kn.

 
 
jpsmedia.com for Web Design SOUNDCLOUD worldairports.se 2018   terms of use